Regional Weather Roundup
Issued by NWS Tiyan, Guam

Home | Current Version | Previous Version | Text Only | Print | Product List | Glossary On
Versions: 1 2 3 4 5 6 7 8 9 10
000
ASGM40 PGUM 010812
RWRGUM
WEATHER ROUNDUP FOR THE MARIANAS
NATIONAL WEATHER SERVICE TIYAN GU
600 PM CHST WED OCT 01 2014

GUZ001>004-010900-
MARIANA ISLANDS-

CITY           SKY/WX    TMP DP  RH WIND       PRES   REMARKS
GUAM AIRPORT   RAIN      81  75  83 SW10G21   29.61R
ANDERSEN AFB   PTCLDY    81  77  89 SW13G21   29.61R
ROTA AIRPORT   MOCLDY    81  77  89 S13G20    29.58R
TINIAN AP      MOCLDY    81  79  94 S13       29.56R
SAIPAN AP      LGT RAIN  82  79  89 S13G24    29.58R HX  93

$$



USA.gov is the U.S. government's official web portal to all federal, state and local government web resources and services.